Presure
152 169 163 105 176 123 179 166 209 159 171 179 157 159 196 169 163 151 137 136 102 111 97 147 154 157 165 186 186 201 156 164 172 184 175 172 170 168 164 121 148 156 146
133 223 154 160 189 118 121 120 127 177 177 183 177 158 170 172 164 132 169 174 151 155 151 144 159 167 170 171 172 168 156 165 162 164 169 169 164 128 126 124 145 132 155
181 196 235 229 215 212 160 167 158 128 183 194 173 175 168 155 160 120 121 170 171 171 171 174 178 149 144 156 156 153 166 170 170 172 172 131 131 134 127 156 146 160 171
98 216 228 215 211 200 170 202 201 199 189 188 188 180 146 142 122 138 119 156 159 126 170 177 170 163 158 157 154 152 150 173 172 126 129 143 156 178 177 174 162 160 172
218 226 198 215 206 203 186 200 197 162 184 184 188 175 159 114 109 110 115 134 129 135 158 155 157 146 161 162 154 148 159 166 162 158 136 177 169 153 149 184 181 103 163
222 216 208 211 199 197 198 194 194 184 185 184 177 165 176 126 101 187 191 197 187 154 175 165 178 145 172 175 175 186 176 187 190 185 191 184 183 184 115 188 186 184 175
213 208 205 205 210 207 203 203 204 202 200 204 125 212 206 206 205 207 207 205 205 205 208 207 208 200 199 201 204 205 205 204 203 202 204 210 212 212 212 211 207 202 200
211 215 200 197 195 196 196 196 195 193 192 191 192 192 191 196 187 184 187 188 191 191 189 189 188 186 184 184 187 187 187 188 187 180 182 178 180 184 164 192 208 134 132
182 185 185 184 186 187 186 184 181 179 184 188 181 181 176 142 175 197 181 188 201 180 193 185 194 197 195 200 200 198 203 196 189 207 205 203 207 208 211 133 129 126 178
183 184 182 151 181 176 175 169 182 182 189 178 181 181 184 195 174 178 190 187 189 188 190 188 193 193 200 195 211 214 212 212 216 217 217 219 154 225 219 159 144 153 226
181 180 177 170 163 182 170 173 181 178 177 181 190 182 183 194 190 174 176 189 181 180 185 196 200 205 197 203 213 225 226 123 125 147 241 148 243 243 176 252 255 254 256
178 176 180 168 172 176 183 175 183 172 181 174 181 173 165 185 187 196 196 211 201 189 189 192 199 209 257 263 213 170 255 254 253 251 248 247 209 248 147 131 204 244 246
175 180 171 181 183 182 179 178 187 185 173 188 168 166 180 193 201 201 227 222 201 246 269 142 217 261 251 228 230 236 239 242 224 127 130 183 244 223 220 216 212 205 201
188 172 185 167 181 176 183 159 173 179 181 191 183 188 198 230 237 221 207 276 269 141 217 244 259 273 264 250 241 235 171 134 201 213 212 219 221 226 231 233 236 239 234
179 163 170 168 176 180 174 179 174 176 192 171 206 246 235 227 221 246 211 238 266 279 226 199 218 202 231 234 135 147 208 103 224 227 125 234 241 244 246 251 253 258 262
174 177 178 181 176 180 180 203 207 190 210 250 242 236 189 188 140 230 261 254 241 176 202 205 142 123 143 213 219 224 228 231 235 248 178 364 264 494 493 488 480 236 495
161 177 188 199 198 199 184 196 234 256 247 238 220 226 256 241 254 244 234 201 223 223 232 226 126 131 132 220 137 65 248 419 488 479 388 465 467 467 456 453 473 465 459
181 190 182 173 189 200 200 264 264 230 176 220 251 253 250 250 225 157 217 222 225 216 137 139 218 222 216 496 507 496 482 473 469 456 446 442 435 429 421 426 476 500 516
177 184 192 194 199 213 255 238 221 221 223 251 231 263 175 151 219 217 172 184 197 218 226 231 332 506 500 492 481 468 456 443 422 410 407 406 449 524 516 474 402 407 405
186 192 198 205 237 203 179 139 217 239 250 245 221 151 200 216 206 171 216 222 230 240 383 496 484 470 461 453 429 423 404 384 399 445 545 540 537 533 478 463 387 384 394
193 195 186 188 255 239 220 224 249 246 171 145 220 212 205 206 212 215 229 251 342 475 478 459 497 513 508 492 475 427 407 479 534 494 493 406 368 384 390 380 373 378 386
196 212 268 238 228 222 240 246 239 152 188 211 209 197 207 213 224 239 322 356 478 458 504 506 520 579 578 562 553 507 532 457 426 372 354 360 360 353 357 358 365 369 371
212 258 239 221 241 242 230 243 165 213 204 199 204 218 219 232 309 339 452 466 503 516 508 509 523 522 523 498 459 436 403 349 342 353 331 331 359 351 353 354 359 363 397
242 231 217 241 216 188 177 217 201 198 196 210 217 228 279 308 362 483 477 504 496 505 499 493 483 467 448 438 405 342 331 334 330 342 342 342 352 347 346 351 353 359 364
222 221 248 149 273 224 177 196 200 198 212 220 251 302 306 360 475 502 501 483 513 475 449 440 430 443 369 339 326 325 324 339 345 360 353 346 351 356 347 346 353 351 352
233 168 234 221 204 164 165 200 206 218 233 285 297 317 371 471 497 490 468 489 435 437 408 407 361 337 331 325 330 339 350 344 340 345 348 355 351 355 356 340 353 351 352
Wind_Speed
53 60 46 43 44 45 44 46 46 56 57 55 56 56 54 55 56 51 48 49 48 53 51 56 56 57 61 65 65 68 57 60 61 63 63 63 62 61 63 63 64 66 67
51 67 53 49 47 51 50 47 49 56 55 56 58 58 58 58 58 52 62 60 59 60 59 59 63 65 65 67 68 67 62 66 63 63 66 67 67 66 67 66 70 71 64
57 61 48 45 45 46 55 54 57 54 54 53 61 61 61 60 61 55 58 65 66 67 67 69 69 61 60 63 64 63 70 73 73 74 73 66 69 71 71 67 69 73 77
45 57 45 47 46 50 55 50 49 50 53 55 57 61 59 59 56 62 61 65 66 64 69 71 72 72 70 68 68 69 67 76 76 64 68 72 77 83 85 83 75 74 82
52 47 48 47 47 50 52 50 52 56 56 57 58 58 59 59 59 63 66 69 68 68 74 72 73 71 77 78 70 68 77 82 77 77 73 85 81 74 74 90 89 42 78
46 47 48 48 50 52 52 53 54 57 59 61 65 67 65 60 57 69 69 70 72 78 79 82 84 75 84 86 85 90 87 91 92 89 93 92 92 93 52 96 95 95 90
44 45 46 46 48 49 51 54 55 55 58 61 63 62 61 61 64 66 69 72 73 76 78 79 82 84 86 87 88 89 91 94 95 95 99 101 100 101 101 102 103 102 101
42 46 42 42 42 45 48 50 52 52 52 55 58 60 64 62 62 65 68 72 75 78 79 81 83 83 84 85 88 88 89 89 90 88 90 88 90 92 82 95 103 62 65
45 42 41 43 46 48 49 51 55 57 58 57 58 60 63 65 69 80 74 79 84 79 86 83 89 91 91 97 99 100 104 99 97 108 108 107 111 112 113 68 67 68 92
44 45 47 56 50 50 52 58 57 59 66 61 61 63 69 76 70 79 93 92 92 92 93 94 98 97 103 96 111 113 113 114 116 118 118 119 79 120 116 84 78 84 122
48 49 50 54 62 58 59 62 63 63 63 72 79 71 75 85 82 73 80 94 96 100 103 110 111 113 109 112 117 118 119 66 68 75 124 78 127 128 94 125 125 124 125
52 52 57 59 58 60 69 59 69 65 76 66 75 72 76 87 88 94 91 90 91 99 103 108 114 109 104 105 94 81 111 113 116 118 120 121 105 122 82 80 108 123 124
54 59 57 64 67 69 65 66 80 78 69 83 73 77 86 93 94 95 91 89 94 90 87 90 93 100 101 101 105 110 112 115 110 65 70 97 116 112 113 113 112 110 110
64 57 68 61 69 64 74 74 70 75 78 88 85 91 95 91 89 94 96 90 84 86 85 94 100 104 102 104 105 107 87 78 104 110 112 115 118 122 125 125 126 127 123
61 66 65 67 68 75 68 77 73 78 90 81 94 90 91 92 95 90 88 91 99 94 81 80 94 87 104 107 83 86 104 50 118 122 64 126 131 134 134 136 138 143 144
63 70 74 78 74 80 81 92 92 89 93 93 92 92 86 83 77 90 98 97 96 81 87 92 57 54 95 103 110 116 119 122 126 136 100 116 95 81 80 78 80 47 75
71 72 83 87 87 88 81 89 96 94 93 93 94 96 97 93 98 94 94 90 99 103 106 100 87 95 68 117 68 42 133 100 83 81 75 82 81 80 80 80 77 79 80
76 82 78 73 86 94 94 97 93 91 81 95 99 98 97 95 94 80 99 103 106 104 72 77 113 119 118 79 75 74 75 75 79 80 79 78 79 80 79 80 74 71 69
73 81 89 92 96 104 99 86 90 95 98 100 92 98 82 80 99 102 85 93 99 110 121 126 115 83 78 76 73 70 69 67 69 75 76 77 71 61 61 62 61 60 57
85 92 97 102 101 77 77 72 96 100 101 97 88 80 94 99 97 88 109 115 122 126 126 95 92 86 81 74 74 71 62 67 67 65 47 46 46 48 50 51 53 52 51
94 96 91 75 95 96 97 101 99 98 80 77 96 98 97 100 107 112 122 129 145 104 96 96 87 83 80 77 74 65 62 49 38 42 43 48 49 49 48 46 47 47 47
96 105 92 97 97 99 100 100 95 79 88 95 98 93 105 111 120 128 146 142 98 101 85 80 74 61 55 54 50 44 43 37 35 48 40 47 41 44 43 42 42 42 42
103 94 97 98 98 99 94 88 81 95 95 93 102 113 116 125 144 142 109 95 81 70 66 63 55 49 45 38 33 34 33 36 40 40 37 49 40 38 37 37 35 36 30
96 97 99 99 86 82 82 93 90 94 94 110 116 123 138 141 141 92 89 74 69 58 51 44 39 36 31 27 25 30 36 38 39 37 34 38 36 35 33 31 30 29 29
97 100 97 66 92 93 78 90 95 99 112 119 132 140 141 141 91 78 71 65 50 37 35 34 31 27 18 21 26 30 33 31 33 30 28 28 28 29 27 25 24 21 24
99 68 90 82 91 80 79 98 106 115 123 135 136 138 135 89 75 70 60 47 37 32 29 28 21 19 21 23 24 22 22 23 22 24 22 24 23 24 21 18 19 14 17
Wind_Direction
293 300 300 305 292 294 287 287 277 282 279 276 285 286 281 286 287 284 278 279 291 287 292 288 288 287 285 276 276 273 282 283 276 272 274 274 273 273 273 280 275 274 274
297 296 291 289 286 295 296 297 294 277 278 276 279 286 284 283 283 280 287 284 283 285 285 287 288 286 284 282 281 281 279 284 283 281 278 277 276 275 278 281 275 280 277
293 291 287 281 281 281 279 279 280 293 277 280 279 278 281 284 285 284 284 285 286 286 287 285 282 281 279 282 282 282 284 281 281 280 279 277 278 276 281 277 272 275 275
303 288 284 281 279 281 280 281 281 282 279 279 278 276 286 285 283 285 285 284 283 284 282 282 281 282 283 283 282 282 280 277 276 287 285 276 274 274 274 276 277 279 277
288 287 282 280 279 281 284 285 285 287 277 279 281 282 281 287 290 289 287 286 285 285 284 284 284 283 284 284 282 278 283 284 285 279 280 277 277 276 276 272 272 283 279
287 284 284 285 286 287 288 288 288 281 281 280 277 279 283 291 294 283 285 286 285 286 281 282 279 284 281 281 280 279 281 279 278 277 275 273 273 273 271 272 272 271 271
288 287 289 292 290 289 288 288 288 289 291 292 287 292 292 292 291 289 287 285 284 283 281 280 280 281 282 281 279 277 277 277 277 276 275 274 273 271 270 268 268 268 268
290 287 291 293 294 294 294 294 295 295 294 294 295 295 296 295 290 290 290 289 289 288 286 285 283 281 280 280 280 279 278 278 276 275 275 274 274 273 275 271 271 277 275
283 288 290 291 292 292 293 292 291 290 293 292 290 291 290 296 288 299 287 290 294 282 286 282 288 288 285 285 284 283 282 280 278 279 278 277 276 275 274 277 276 275 274
286 290 288 292 292 286 284 283 296 297 298 288 289 289 293 293 289 299 299 299 296 295 293 291 290 287 287 286 285 283 282 282 280 279 279 277 280 272 271 280 281 282 269
283 287 283 281 282 298 285 288 295 293 293 297 298 297 296 293 294 285 291 290 294 293 293 289 286 285 287 285 283 280 280 279 280 283 274 278 273 273 273 270 268 268 267
285 288 294 282 290 295 297 292 297 289 292 290 295 289 285 297 296 294 290 282 278 280 282 285 286 285 281 280 279 279 276 276 275 275 275 275 276 275 277 276 271 271 270
286 291 287 293 294 294 294 294 296 294 292 296 286 286 291 293 290 286 285 282 283 284 284 293 286 281 280 281 281 280 279 278 278 279 279 282 277 278 276 274 272 271 271
290 288 294 285 296 295 296 287 294 296 296 294 293 294 292 294 294 289 287 291 288 293 285 286 286 287 285 283 282 280 285 289 282 281 280 280 278 277 276 275 274 273 271
290 282 288 285 296 297 294 297 295 293 295 286 295 300 298 297 296 297 297 295 294 291 288 289 288 287 286 286 291 289 283 279 284 283 271 281 280 278 278 277 276 274 272
291 296 296 296 296 296 297 297 297 296 298 302 302 302 298 298 295 298 298 297 297 288 293 289 284 285 295 288 289 289 289 288 286 284 282 282 279 284 282 280 277 264 270
287 296 297 298 298 299 297 300 304 304 304 304 302 303 303 302 301 300 300 300 299 297 296 294 292 292 290 292 285 280 286 290 292 289 287 287 287 285 282 279 277 275 272
297 299 299 296 300 302 303 305 304 305 301 304 304 304 304 302 304 300 302 300 298 297 293 287 297 296 295 295 294 293 292 291 292 293 289 288 284 283 284 283 279 275 270
299 300 302 303 304 305 305 303 304 306 306 304 305 304 303 301 304 302 298 299 300 301 300 299 298 303 301 299 296 294 292 294 290 287 286 286 286 284 280 280 282 279 276
303 303 303 304 306 303 302 298 306 306 305 307 304 302 304 305 303 300 303 302 301 300 304 305 306 303 300 298 294 293 292 288 287 289 292 290 290 286 283 282 283 281 275
302 304 303 302 305 306 306 306 305 307 304 304 306 307 306 307 306 305 304 303 306 308 307 305 302 298 297 296 295 295 295 298 299 293 290 290 289 288 287 287 283 282 279
304 304 304 305 307 306 307 306 309 299 306 308 308 307 309 307 306 305 308 309 310 309 307 304 302 305 304 299 300 301 301 297 290 292 292 290 290 292 291 290 291 287 280
304 303 305 306 306 306 307 306 305 309 310 310 311 308 307 305 309 311 312 311 311 311 307 307 308 306 305 305 309 303 298 292 291 293 294 288 298 292 293 291 292 288 288
304 306 306 306 303 303 306 309 310 311 312 311 309 307 309 310 314 314 313 314 316 313 312 312 311 314 319 315 309 295 298 298 296 298 297 294 298 296 294 296 292 294 299
306 305 304 304 308 309 300 312 313 314 311 310 310 312 311 315 316 316 317 319 321 319 318 322 326 331 320 306 301 298 298 303 307 311 309 303 305 302 297 297 290 300 298
305 299 308 308 308 299 311 314 313 311 310 312 313 314 316 318 317 318 319 322 321 322 324 331 334 323 316 308 309 321 324 325 325 323 324 320 313 310 305 295 294 301 300